Location: Newark
(39.2833°N, 16.3333°E)
Time: 06:03:43
(UTC+00:00)

ISS - Visible Passes

Search period start: 18 October 2019 00:00
Search period end: 28 October 2019 00:00
Orbit: 411 x 421 km, 51.6° (Epoch: 17 October)

Date Brightness Start Highest point End Pass type
(mag) Time Alt. Az. Time Alt. Az. Time Alt. Az.
23 Oct -0.8 04:01:04 10° S 04:03:14 16° SE 04:05:24 10° E visible
25 Oct -2.8 03:59:33 12° SSW 04:02:32 47° SE 04:05:48 10° ENE visible
26 Oct -1.9 03:13:51 26° SE 03:14:04 26° SE 03:16:56 10° ENE visible
27 Oct -3.7 04:00:51 34° W 04:02:03 57° NW 04:05:23 10° NE visible
